SL-14 DEB, 45296

Orbit data source: Space-Track

SL-14 DEB, 45296 is space debris in LEO originally from a launch on Thu, 15 Aug 1991 UTC launched from the Plesetsk Missile And Space Complex (PKMTR). Debris objects in space refer to the collection of defunct objects orbiting the Earth. Examples of debris include non-operational satellites, rocket bodies, and fragments generated from explosions, collisions, or faulty payload assembly.

Loading next visibility...
Identifier
45296, 1991-056AJ
Orbit
LEO
Country
Flag of CISCIS
Related business
Manufacturer
Unknown
Mission
Spacecraft
Bus & Motor
Unknown
Mass
Unknown
Launch date (UTC)
1991-08-15 (35 years ago)
Launch vehicle
Unknown
Launch site
Plesetsk Missile And Space Complex (PKMTR)
Object type
Payload
Rocket body
Debris
Shape & HBR
Unknown shape, 0.1 m
Radar Cross Section
Small (<0.1 m²)

Expand to show TLE details & history
Last TLE update: 10 hours ago

TLE from 10 hours ago
0 SL-14 DEB
1 45296U 91056AJ  26062.53946682  .00006691  00000-0  56522-2 0  9990
2 45296  82.6375 100.0419 0196978 201.8607 157.4063 13.79063384299716
Epoch: 2026-03-03T12:56Z
TLE epoch observation values (Epoch: 2026-03-03T12:56:49.933Z)
Latitude
Longitude
104.51677°
Altitude
1,104.127 km
Speed
7.233 km/s
True Right ascension
06h 40m 10s
True Declination
0° 00' 00"
Sunlit
Object was in daylight at epoch
Visualization orbit readout
Latitude
Unknown
Longitude
Unknown
Altitude
Unknown
Speed
Unknown
Apparent Right ascension
Unknown
Apparent Declination
Unknown
Sunlit
N/A
Visualization observer readout
Local Sidereal Time
02:20:15
Azimuth
Unknown
Elevation
Unknown
Doppler factor
Unknown
Orbital elements
Apogee altitude
1,108.995 km
Perigee altitude
819.733 km
Semi-major axis
7,342.501 km
Eccentricity
0.0197
Inclination
82.6375°
RAAN
100.0419°
Arg. of periapsis
201.8607°
True anomaly
158.25418°
Mean anomaly
157.4063°
Eccentric anomaly
157.83215°
Mean motion
3.44967 °/min
Orbital period
104.36 mins
BSTAR
0.0056522
Loading maneuver chart data...
Computing Atmospheric mass density...
Loading historical data...
Loading historical data...
Loading historical data...
Loading historical data...
Loading historical data...
Loading historical data...
Loading historical data...

Documentation

Showing up to 5 results
|